Hailey, ID

7:57 AM MST on December 07, 2016 (GMT -0700)
Friedman Memorial

Weather History for KSUN - December, 2011

Change the Weather History Date:

Saturday, December 24, 2011

  Actual Average Record
Temperature  
Mean Temperature 20 °F -  
Max Temperature 30 °F 32 °F 46 °F (1999)
Min Temperature 10 °F 13 °F -4 °F (2001)
Degree Days  
Heating Degree Days 45    
Moisture  
Dew Point 10 °F    
Average Humidity 77    
Maximum Humidity 92    
Minimum Humidity 55    
Precipitation  
Precipitation 0.00 in - - ()
Sea Level Pressure  
Sea Level Pressure 30.59 in    
Wind  
Wind Speed 5 mph (NNW)    
Max Wind Speed 12 mph    
Max Gust Speed -    
Visibility 10 miles    
Events      
Averages and records for this station are not official NWS values.
T = Trace of Precipitation, MM = Missing Value Source: NWS Daily Summary

Daily Weather History Graph

Daily Weather History Graph

Search for Another Location

Airport or City:

Trip Planner

Search our weather history database for the weather conditions in past years. The results will help you decide how hot, cold, wet, or windy it might be!

Date:

Astronomy

Dec. 24, 2011 Rise Set
Actual Time 8:08 AM MST 5:05 PM MST
Civil Twilight 7:35 AM MST 5:38 PM MST
Nautical Twilight 6:59 AM MST 6:14 PM MST
Astronomical Twilight 6:24 AM MST 6:49 PM MST
Moon 8:00 AM MST (12/24) 5:23 PM MST (12/24)
Length of Visible Light 10h 02m
Length of Day
8h 57m
New Moon, 0% of the Moon is Illuminated
Dec 24
New Moon
Dec 31
First Quarter
Jan 9
Full
Jan 16
Last Quarter
Jan 23
New

Hourly Weather History & Observations

Time (MST) Temp. Windchill Dew Point Humidity Pressure Visibility Wind Dir Wind Speed Gust Speed Precip Events Conditions
12:35 AM 12.2 °F - 8.6 °F 85% 30.58 in 10.0 mi Calm Calm - N/A   Clear
12:55 AM 14.0 °F 5.1 °F 8.6 °F 79% 30.59 in 10.0 mi NNW 5.8 mph - N/A   Clear
1:15 AM 10.4 °F 4.0 °F 6.8 °F 85% 30.58 in 10.0 mi NW 3.5 mph - N/A   Clear
1:35 AM 10.4 °F -0.4 °F 6.8 °F 85% 30.58 in 10.0 mi NW 6.9 mph - N/A   Clear
1:55 AM 12.2 °F 0.7 °F 8.6 °F 85% 30.58 in 10.0 mi NNW 8.1 mph - N/A   Clear
2:15 AM 12.2 °F 1.7 °F 8.6 °F 85% 30.59 in 10.0 mi NW 6.9 mph - N/A   Clear
2:35 AM 10.4 °F -2.4 °F 8.6 °F 92% 30.59 in 10.0 mi NNW 9.2 mph - N/A   Clear
2:55 AM 12.2 °F -0.2 °F 8.6 °F 85% 30.59 in 10.0 mi NW 9.2 mph - N/A   Clear
3:15 AM 10.4 °F 0.8 °F 8.6 °F 92% 30.59 in 10.0 mi North 5.8 mph - N/A   Clear
3:35 AM 10.4 °F 2.2 °F 6.8 °F 85% 30.59 in 10.0 mi NNW 4.6 mph - N/A   Clear
3:55 AM 10.4 °F -0.4 °F 8.6 °F 92% 30.59 in 10.0 mi NNW 6.9 mph - N/A   Clear
4:15 AM 10.4 °F -0.4 °F 6.8 °F 85% 30.59 in 10.0 mi NNW 6.9 mph - N/A   Clear
4:35 AM 10.4 °F 0.8 °F 6.8 °F 85% 30.59 in 10.0 mi NW 5.8 mph - N/A   Clear
4:55 AM 10.4 °F 2.2 °F 6.8 °F 85% 30.60 in 10.0 mi NNW 4.6 mph - N/A   Clear
5:15 AM 10.4 °F 0.8 °F 6.8 °F 85% 30.59 in 10.0 mi North 5.8 mph - N/A   Clear
5:35 AM 10.4 °F -0.4 °F 5.0 °F 79% 30.60 in 10.0 mi NNW 6.9 mph - N/A   Clear
5:55 AM 10.4 °F -2.4 °F 6.8 °F 85% 30.59 in 10.0 mi NNW 9.2 mph - N/A   Clear
6:50 AM 10.4 °F -2.4 °F 6.8 °F 85% 30.60 in 10.0 mi WNW 9.2 mph - N/A   Clear
7:47 AM 10.4 °F -3.3 °F 6.8 °F 85% 30.59 in 10.0 mi WNW 10.4 mph - N/A   Clear
8:47 AM 12.2 °F -1.0 °F 8.6 °F 85% 30.59 in 10.0 mi WNW 10.4 mph - N/A   Partly Cloudy
9:55 AM 15.8 °F - 8.6 °F 73% 30.60 in 10.0 mi Calm Calm - N/A   Partly Cloudy
10:50 AM 17.6 °F - 10.4 °F 73% 30.62 in 10.0 mi Calm Calm - N/A   Scattered Clouds
11:47 AM 23.0 °F 14.7 °F 12.2 °F 63% 30.62 in 10.0 mi ESE 6.9 mph - N/A   Clear
12:47 PM 24.8 °F 16.9 °F 14.0 °F 64% 30.60 in 10.0 mi NNE 6.9 mph - N/A   Scattered Clouds
1:47 PM 26.6 °F - 12.2 °F 55% 30.59 in 10.0 mi Calm Calm - N/A   Scattered Clouds
2:47 PM 30.2 °F - 15.8 °F 55% 30.57 in 10.0 mi Calm Calm - N/A   Partly Cloudy
3:47 PM 30.2 °F 23.4 °F 15.8 °F 55% 30.57 in 10.0 mi ESE 6.9 mph - N/A   Scattered Clouds
4:47 PM 26.6 °F 20.0 °F 15.8 °F 64% 30.58 in 10.0 mi SE 5.8 mph - N/A   Scattered Clouds
5:47 PM 24.8 °F - 14.0 °F 64% 30.59 in 10.0 mi Calm Calm - N/A   Clear
6:47 PM 23.0 °F - 12.2 °F 63% 30.59 in 10.0 mi Calm Calm - N/A   Clear
7:47 PM 19.4 °F 14.3 °F 12.2 °F 74% 30.59 in 10.0 mi NNW 3.5 mph - N/A   Clear
8:48 PM 17.6 °F 9.3 °F 10.4 °F 73% 30.59 in 10.0 mi NNW 5.8 mph - N/A   Clear
9:50 PM 15.8 °F - 10.4 °F 79% 30.59 in 10.0 mi Calm Calm - N/A   Clear
10:15 PM 17.6 °F 5.7 °F 12.2 °F 79% 30.59 in 10.0 mi NNW 10.4 mph - N/A   Clear
10:35 PM 17.6 °F 5.7 °F 12.2 °F 79% 30.59 in 10.0 mi NNW 10.4 mph - N/A   Clear
10:47 PM 19.4 °F 7.2 °F 12.2 °F 74% 30.57 in 10.0 mi WNW 11.5 mph - N/A   Clear
10:55 PM 19.4 °F 8.6 °F 12.2 °F 74% 30.57 in 10.0 mi NNW 9.2 mph - N/A   Clear
11:15 PM 19.4 °F 9.5 °F 14.0 °F 80% 30.57 in 10.0 mi NW 8.1 mph - N/A   Clear
11:35 PM 19.4 °F 10.4 °F 12.2 °F 74% 30.58 in 10.0 mi NNW 6.9 mph - N/A   Clear
11:55 PM 19.4 °F 14.3 °F 12.2 °F 74% 30.57 in 10.0 mi NNE 3.5 mph - N/A   Clear